Regional Weather Roundup
Issued by NWS

Home | Current Version | Previous Version | Graphics & Text | Print | Product List | Glossary On
Versions: 1 2 3 4 5 6 7 8 9 10 11 12 13 14 15 16 17 18 19 20 21 22 23 24 25 26 27 28 29 30 31 32 33 34 35 36 37 38 39 40 41 42 43 44 45 46 47 48 49 50
000
ASUS45 KPSR 021310
RWRAZ

ARIZONA HOURLY REGIONAL WEATHER ROUNDUP
NATIONAL WEATHER SERVICE PHOENIX AZ
600 AM MST WED SEP 02 2015

NOTE: FAIR INDICATES FEW OR NO CLOUDS BELOW 12,000 FEET WITH NO
SIGNIFICANT WEATHER AND/OR OBSTRUCTIONS TO VISIBILITY.

AZZ001>003-036-021400-
NORTHWEST ARIZONA

CITY           SKY/WX    TMP DP  RH WIND       PRES   REMARKS
BULLHEAD CITY  CLEAR     84  55  37 S7        29.85R
KINGMAN        CLEAR     71  52  50 SE8       30.04R
$$

AZZ004>008-015-016-018-021400-
NORTH CENTRAL ARIZONA

CITY           SKY/WX    TMP DP  RH WIND       PRES   REMARKS
GRAND CANYON   PTCLDY    49  47  93 NE3       30.29R
PRESCOTT       CLEAR     63  53  70 S5        30.18R
FLAGSTAFF      PTCLDY    48  47  96 CALM      30.33R
PAYSON         CLOUDY    70  54  56 SE3       30.22R
PAGE           MOCLDY    70  49  47 CALM      30.10R
$$

AZZ009>014-017-021400-
NORTHEAST ARIZONA

CITY           SKY/WX    TMP DP  RH WIND       PRES   REMARKS
WINSLOW        CLOUDY    63  58  83 E6        30.19R
SAINT JOHNS    CLOUDY    62  54  74 S3        30.25R
WINDOW ROCK    CLEAR     49  45  86 CALM      30.31R
SHOW LOW       CLOUDY    61  50  67 S10       30.30R
$$

AZZ023-021400-
GREATER PHOENIX AREA

CITY           SKY/WX    TMP DP  RH WIND       PRES   REMARKS
PHOENIX        CLOUDY    84  68  58 E6        29.90R
GLENDALE       CLOUDY    84  59  42 CALM      29.92
LUKE AFB       PTCLDY    84  58  40 NW1       29.90R
DEER VALLEY    MOCLDY    84  61  45 SE3       29.93R
SCOTTSDALE     CLOUDY    82  64  54 CALM      29.95R
MESA-FALCON    MOCLDY    84  63  48 E6        29.92
MESA-GATEWAY   MOCLDY    79  70  73 SE5       29.95S
CHANDLER       CLOUDY    81  70  69 NE5       29.92
$$

AZZ027-028-021400-
SOUTHWEST MARICOPA COUNTY AND PINAL COUNTY

CITY           SKY/WX    TMP DP  RH WIND       PRES   REMARKS
CASA GRANDE    CLOUDY    81  54  39 CALM      29.94R
GILA BEND      FAIR      82  49  31 S10       29.89R
$$

AZZ503-504-507>509-021400-
SOUTHEAST ARIZONA

CITY           SKY/WX    TMP DP  RH WIND       PRES   REMARKS
TUCSON         CLOUDY    80  63  55 NE5       30.05R
DAVIS-MONTHAN  MOCLDY    77  66  68 E3        30.03R
RYAN FIELD     MOCLDY    81  66  61 SE6       30.03
NOGALES        CLOUDY    69  62  78 E3        30.13R
SIERRA VISTA   CLOUDY    70  56  60 SW6       30.19R
DOUGLAS        MOCLDY    64  59  83 SE3       30.14R
SAFFORD        CLOUDY    72  67  84 CALM      30.06R
$$

AZZ020-021-025-026-031-021400-
SOUTHWEST ARIZONA

CITY           SKY/WX    TMP DP  RH WIND       PRES   REMARKS
YUMA           MOCLDY    85  64  49 SE8       29.83R
$$

CAZ031-033-041-043-047-048-061-021400-
SOUTHERN CALIFORNIA

CITY           SKY/WX    TMP DP  RH WIND       PRES   REMARKS
DOWNTOWN L.A.  CLOUDY    71  60  68 VRB3      29.95R
L.A. AIRPORT   CLOUDY    70  59  68 SE5       29.96R
SAN DIEGO      CLOUDY    70  59  68 S5        29.96S
BURBANK        CLOUDY    69  59  70 S5        29.96R
ONTARIO        CLOUDY    67  60  78 W5        29.97R
RIVERSIDE      CLOUDY    68  60  75 CALM      29.97R
PALM SPRINGS   PTCLDY    76  57  51 CALM      29.86R
EL CENTRO NAS  CLEAR     77  36  22 NW3       29.82R
IMPERIAL       CLEAR     78  42  27 SW3       29.80R
BLYTHE         CLEAR     80  61  52 SE5       29.84R
NEEDLES        CLEAR     85  46  25 SW9       29.86R
$$

NVZ020-UTZ003-021400-
SOUTHERN NEVADA-UTAH

CITY           SKY/WX    TMP DP  RH WIND       PRES   REMARKS
LAS VEGAS      PTCLDY    83  54  36 S6        29.87R
SALT LAKE CITY PTCLDY    75  43  31 S17       30.00R
$$

NMZ009-TXZ055-021400-
NEW MEXICO-WEST TEXAS

CITY           SKY/WX    TMP DP  RH WIND       PRES   REMARKS
ALBUQUERQUE    PTCLDY    69  45  41 W3        30.21R
EL PASO        MOCLDY    74  48  39 N5        30.09R
$$


........................KEY........................
SKY/WX - SKY CONDITION/WEATHER
TMP    - TEMPERATURE IN FAHRENHEIT
DP     - DEW POINT IN FAHRENHEIT
RH     - RELATIVE HUMIDITY IN PERCENT
WIND   - DIRECTION AND SPEED IN MILES PER HOUR (MPH)
VRB    - VARIABLE WIND DIRECTION
PRES   - MEAN SEA LEVEL PRESSURE IN INCHES OF MERCURY
         F - FALLING PRESSURE   R - RISING PRESSURE
         S - STEADY PRESSURE
VSB    - VISIBILITY IN MILES
HX     - HEAT INDEX IN FAHRENHEIT
WCI    - WIND CHILL INDEX IN FAHRENHEIT
TC     - TEMPERATURE IN CELSIUS WHICH IS ALSO KNOWN AS
         TEMPERATURE IN CENTIGRADE
AFB    - AIR FORCE BASE
         LUKE AFB IS LUKE AIR FORCE BASE
         DAVIS-MONTHAN IS DAVIS-MONTHAN AIR FORCE BASE
NAS    - NAVAL AIR STATION
         EL CENTRO NAS IS EL CENTRO NAVAL AIR STATION
N/A    - NOT AVAILABLE



USA.gov is the U.S. government's official web portal to all federal, state and local government web resources and services.